Powrót do katalogu

STARLINK-2757

AktywnyŁącznośćVLEO
NORAD 48604·PAYLOAD·🇺🇸 United States

Wystrzelony May 15, 2021 z Cape Canaveral Space Force Station

Loading…

Następne Przeloty (najbliższe 24 godziny)

TLE

ŚwieżeSource: CelesTrak SupGP

Epoka: Sep 14, 2026, 21:07 UTC

1 48604C 21041BD  26257.88034722 -.00029202  00000+0 -93911-3 0  2575
2 48604  53.1600 348.4741 0001146  76.4930 121.9147 15.31715425    11

Śledź STARLINK-2757 w czasie rzeczywistym z AllMySat

Download on the App Store